This is the latest recevied weather packets stored in our database for station/object CT1ETE-13. If no packets are shown the sender has not sent any weather packets the latest 10 day(s).
| Time | Temp. | Humidity | Pressure | Rain* | Wind** | Luminosity | Snow |
|---|---|---|---|---|---|---|---|
| 1787712727 | 17.22° C | 82% | 1011.2 hPa | 0 mm | - | 1470 W/m² | - |
| 1787711764 | 17.78° C | 81% | 1011.3 hPa | 0 mm | - | 1470 W/m² | - |
| 1787710865 | 17.78° C | 80% | 1011.7 hPa | 0 mm | - | 1468 W/m² | - |
| 1787709964 | 17.78° C | 78% | 1012 hPa | 0 mm | - | 1470 W/m² | - |
| 1787709066 | 17.78° C | 80% | 1012.3 hPa | 0 mm | - | 1470 W/m² | - |
| 1787708165 | 17.22° C | 81% | 1012.4 hPa | 0 mm | - | 1471 W/m² | - |
| 1787707264 | 16.67° C | 85% | 1012.8 hPa | 0 mm | - | 1473 W/m² | - |
| 1787706365 | 17.22° C | 84% | 1012.7 hPa | 0 mm | - | 1473 W/m² | - |
| 1787705464 | 17.22° C | 84% | 1012.9 hPa | 0 mm | - | 1475 W/m² | - |
| 1787704563 | 16.67° C | 84% | 1013 hPa | 0 mm | - | 1475 W/m² | - |
| 1787703662 | 16.67° C | 84% | 1013.1 hPa | 0 mm | - | 1475 W/m² | - |
| 1787702761 | 17.22° C | 84% | 1013 hPa | 0 mm | - | 1475 W/m² | - |
| 1787701861 | 17.22° C | 84% | 1013.2 hPa | 0 mm | - | 1473 W/m² | - |
| 1787700960 | 17.22° C | 85% | 1013.1 hPa | 0 mm | - | 1473 W/m² | - |
| 1787700060 | 17.22° C | 85% | 1013.1 hPa | 0 mm | - | 1473 W/m² | - |
| 1787699158 | 17.22° C | 84% | 1013.4 hPa | 0 mm | - | 1473 W/m² | - |
| 1787698260 | 17.22° C | 84% | 1013.3 hPa | 0 mm | - | 1471 W/m² | - |
| 1787697420 | 17.78° C | 84% | 1013.4 hPa | 0 mm | - | 1471 W/m² | - |
| 1787696455 | 17.78° C | 84% | 1013.6 hPa | 0 mm | - | 1470 W/m² | - |
| 1787695554 | 17.78° C | 84% | 1013.8 hPa | 0 mm | - | 1468 W/m² | - |
| 1787694654 | 17.78° C | 84% | 1014 hPa | 0 mm | - | 1468 W/m² | - |
| 1787693752 | 17.78° C | 84% | 1014.1 hPa | 0 mm | - | 1468 W/m² | - |
| 1787692852 | 18.33° C | 84% | 1014.2 hPa | 0 mm | - | 1468 W/m² | - |
| 1787691952 | 18.33° C | 84% | 1014.2 hPa | 0 mm | - | 1470 W/m² | - |
| 1787691052 | 18.33° C | 84% | 1014.3 hPa | 0 mm | - | 1470 W/m² | - |
* Rain latest hour (hover to see other rain measurements)
** Current wind speed in m/s (hover to see current wind gust speed)